www.pogodaiklimat.ru

Погода и климат >> Архив погоды >> Россия >> Хабаровский край >> Удинск


ПОГОДА в Удинске

  • Прогноз погоды в Удинске
  • Монитор погоды в Удинске

АРХИВ ПОГОДЫ в Удинске

Время (UTC), дата Ветер
(напр.,м/с)
 
Видим.   Явления Облачность Т
(С)
Тd
(С)
f
(%)
Тe
(С)
Тes
(С)
Комфортность P
(гПа)
Po
(гПа)
Тmin
(С)
Tmax
(С)
R
(мм)
R24
(мм)
S
(см)
09 16.08 В 4 20 км 10/8 600 м
[Sc Ac lent Ci ing]
+19.1 +13.3 69 +20 +20 1012.2 1010.4 +20.2
12 16.08 В 4 20 км 10/9 600 м
[Cb cap Ci ing]
+17.3 +12.5 73 +17 +17 1013.2 1011.5
15 16.08 В 5 20 км 10/10 600 м
[Cb cap]
+15.8 +11.9 78 +15 +15 1013.2 1011.4
18 16.08 В 5 20 км 10/10 600 м
[Cb cap]
+13.9 +11.0 83 +12 +12 1012.7 1010.9
21 16.08 В 3 20 км 10/8 600 м
[Cb cap Ac As Ci ing]
+13.0 +10.3 84 +12 +12 1013.0 1011.2 +13.0
00 17.08 В 3 20 км в посл. час ливневой дождь 10/5 600 м
[Cb cap Ac As Ci ing]
+13.4 +9.5 77 +12 +14 1013.1 1011.3 +12.7
03 17.08 В 3 50 км {ливн. осадки} 10/6 600 м
[Sc Ac As Ci ing]
+15.5 +8.6 63 +15 +17 1012.6 1010.8
06 17.08 СВ 1 50 км {ливн. осадки} 10/6 600 м
[Cb cap Ac As]
+17.0 +11.0 68 +18 +19 1012.0 1010.3
09 17.08 В 1 50 км 10/8 600 м
[Sc Ac und]
+14.2 +11.8 85 +15 +15 1012.3 1010.5 +17.0 0.4
12 17.08 В 2 50 км 10/8 600 м
[Sc Ac und]
+13.8 +9.6 76 +13 +13 1012.9 1011.1
15 17.08 В 2 50 км 10/6 600 м
[Sc Ac As Ci ing]
+12.3 +8.8 79 +11 +11 1012.7 1010.9
18 17.08 В 2 50 км {ливн. осадки} 10/8 600 м
[Sc Ac As Ci ing]
+12.1 +10.3 89 +11 +11 1012.6 1010.8
21 17.08 В 2 20 км {ливн. осадки} 10/9 600 м
[Cb cap Ac As Ci ing]
+11.9 +10.3 90 +11 +11 1013.1 1011.3 +11.6 0.5
00 18.08 В 2 20 км {ливн. осадки} 10/9 600 м
[Cb cap Ac As]
+13.6 +10.6 82 +13 +13 1013.4 1011.6
03 18.08 СВ 3 20 км 10/8 600 м
[Cb cap Ac As Ci ing]
+16.3 +11.3 72 +16 +17 1012.9 1011.2
06 18.08 В 3 20 км 10/6 600 м
[Sc Ac As Ci ing]
+17.7 +11.3 66 +18 +19 1012.0 1010.2
09 18.08 штиль 0 20 км 10/5 600 м
[Sc Ac As]
+16.1 +12.9 81 +16 +16 1012.2 1010.4 +17.8
15 18.08 ЮВ 1 50 км {ливн. осадки} 10/4 600 м
[Sc Ac As Ci ing]
+13.4 +12.3 93 +14 +14 1014.2 1012.4
18 18.08 В 1 20 км {ливн. осадки} 10/8 600 м
[Sc Ac As Ci ing]
+13.3 +12.4 94 +13 +13 1014.5 1012.7
21 18.08 ЮВ 1 10 км 10/8 600 м
[Cb cap Ac trans Ci ing]
+14.1 +12.5 90 +14 +14 1015.6 1013.8 +11.9 0.3
00 19.08 СВ 2 20 км 8/5 600 м
[Cb cap Ac trans Cc]
+16.5 +12.2 76 +17 +19 1015.7 1013.9
03 19.08 В 3 50 км 10/9 600 м
[Sc Ci ing]
+17.1 +12.2 73 +17 +18 1015.2 1013.4
06 19.08 В 1 20 км 10/10 600 м
[Sc]
+17.3 +12.7 74 +18 +18 1015.2 1013.4
09 19.08 ЮВ 1 10 км слаб. ливневой дождь 10/10 600 м
[Cb cap]
+15.5 +14.5 94 +16 +16 1015.4 1013.6 +17.8 0.7
12 19.08 ЮВ 1 20 км {ливн. осадки} 10/9 600 м
[Cb cap Ci ing]
+14.7 +14.3 97 +15 +15 1015.8 1014.0
15 19.08 ЮВ 1 20 км 10/8 600 м
[Sc Ac As]
+14.6 +14.2 97 +15 +15 1015.4 1013.6
18 19.08 штиль 0 20 км 10/8 600 м
[Sc Ac As Ci ing]
+14.6 +14.1 97 +14 +14 1015.3 1013.5
21 19.08 штиль 0 10 км 10/10 600 м
[St]
+14.8 +14.4 97 +14 +14 1015.5 1013.7 +14.5 2
00 20.08 В 1 10 км 10/10 600 м
[St]
+16.1 +15.0 93 +17 +17 1015.2 1013.5
03 20.08 С 1 10 км 10/10 600 м
[St]
+18.0 +15.0 83 +19 +19 1015.2 1013.4
06 20.08 В 2 20 км 10/9 600 м
[Sc Ac As]
+18.0 +14.8 82 +19 +19 1015.2 1013.4
09 20.08 В 1 10 км слаб. морось 10/10 600 м
[St]
+16.3 +15.2 93 +17 +17 1015.7 1013.9 +18.2 0.1
12 20.08 Ю 1 20 км {морось} 10/10 600 м
[Cb cap]
+15.4 +14.9 97 +16 +16 1016.4 1014.6
15 20.08 штиль 0 10 км в посл. час ливневой дождь 10/10 600 м
[Cb cap]
+14.8 +14.3 97 +14 +14 1016.5 1014.7
18 20.08 штиль 0 10 км {ливн. осадки} 10/10 600 м
[Cb cap]
+14.0 +13.6 97 +14 +14 1016.5 1014.7
21 20.08 штиль 0 10 км в посл. час морось 10/10 600 м
[St]
+14.0 +13.6 97 +14 +14 1017.2 1015.4 +13.8 0.7
00 21.08 штиль 0 10 км {морось} 10/10 600 м
[St]
+15.9 +15.0 94 +16 +16 1017.4 1015.6
03 21.08 В 3 20 км {ливн. осадки, морось} 10/6 600 м
[Cb cap Ac As Ci ing]
+18.1 +14.8 81 +18 +20 1017.2 1015.4
09 21.08 В 2 20 км 10/6 600 м
[Sc Ac lent Ci ing]
+16.3 +14.3 88 +16 +16 1016.8 1015.0 +18.3 0.1
21 21.08 штиль 0 20 км 10/6 600 м
[Sc Ac lent Ci ing]
+13.1 +12.8 98 +13 +13 1017.3 1015.5 +10.7 0.1
09 22.08 В 1 50 км 8/6 600 м
[Sc Ac As Ci ing]
+16.9 +11.8 72 +18 +18 1016.7 1014.9 +19.1
21 22.08 штиль 0 500 м туман ?/? +10.2 +9.9 98 +9 +9 1017.5 1015.7 +8.2
00 23.08 В 1 20 км в посл. час туман 8/3 600 м
[Sc diur, vesp Cc]
+16.9 +12.9 77 +18 +23 1017.4 1015.6

 

Местоположение метеостанции Удинск (Хабаровский край, Россия): широта 52.92 долгота 138.80 высота над уровнем моря 15 м.

В архиве по умолчанию представлена погода в Удинске за последнюю неделю. Архивные данные за месяц целиком и за предыдущие месяцы, начиная с января 2011 года, Вы можете получить, выбрав интересующий диапазон дат из раскрывающегося списка и нажав кнопку "Ввод!".


*Определитесь, кто Вы:
робот инопланетянин человек

Внимание! Время в таблицах - всемирное. Для получения местного времени необходимо прибавить поправку, которая равна 10 ч.

Смотрите также архив погоды в соседних городах и на ближайших метеорологических станциях:

Погода в Богородском (Хабаровский край, Россия) (124 км)
Погода в Николаевск-на-Амуре (Хабаровский край, Россия) (130 км)
Погода в Литке (Хабаровский край, Россия) (152 км)
Погода в Мариинском (Хабаровский край, Россия) (159 км)
Погода в Джаоре (Хабаровский край, Россия) (164 км)
Погода в Им. Полины Осипенко (Хабаровский край, Россия) (165 км)
Погода в Байдукове (Хабаровский край, Россия) (179 км)
Погода в Циммермановка (Хабаровский край, Россия) (179 км)
Погода в Бурукане (Хабаровский край, Россия) (188 км)
Погода в Погибях (Сахалинская область, Россия) (205 км)

Пояснения к столбцам:

Ветер - указаны скорость ветра в м/с - средняя за 10 мин, порывы в срок и между сроками (в фигурных скобках) и направление, откуда дует ветер: С - северный, СВ - северо-восточный, В - восточный, ЮВ - юго-восточный, Ю - южный, ЮЗ - юго-западный, З - западный, СЗ - северо-западный.
Видимость - горизонтальная дальность видимости в метрах или километрах. При видимости от 1 до 10 км при отсутствии осадков обычно наблюдается дымка, при ухудшении видимости до 1 км и менее - туман. В сухую погоду видимость может ухудшаться дымом, пылью или мглою.
Явления - указаны атмосферные явления, наблюдавшиеся в срок или в последний час перед сроком; фигурными скобками обозначены явления, наблюдавшиеся между сроками (за 1-3 часа до срока); квадратными скобками обозначены град или гололедные отложения с указанием их диаметра в мм.
Облачность - указаны через наклонную черту общая и нижняя облачность в баллах и высота нижней границы облаков в метрах; квадратными скобками обозначены формы облаков: Ci - перистые, Cs - перисто-слоистые, Cc - перисто-кучевые, Ac - высококучевые, As - высокослоистые, Sc - слоисто-кучевые, Ns - слоисто-дождевые, Cu - кучевые, Cb - кучево-дождевые. Подробнее классификацию облаков см. в Атласе облаков (PDF).
T - Температура воздуха - температура, измеренная на высоте 2 м над землей.
Td - Температура точки росы - температура, при понижении до которой содержащийся в воздухе водяной пар достигнет насыщения.
f - Относительная влажность воздуха - влажноcть воздуха, измеренная на высоте 2 м над землей.
Te - Эффективная температура - температура, которую ощущает одетый по сезону человек в тени. Характеристика душности погоды. При расчете учитывается влияние влажности воздуха и скорости ветра на теплоощущения человека.
Tes - Эффективная температура на солнце - температура, которую ощущает человек, с поправкой на солнечный нагрев. Характеристика знойности погоды. Зависит от высоты солнца над горизонтом, облачности и скорости ветра. Ночью, в пасмурную погоду, а также при ветре 12 м/с и более поправка равна нулю.
P - Атмосферное давление - приведенное к уровню моря атмосферное давление.
Po - Атмосферное давление - измеренное на уровне метеостанции атмосферное давление.
Tmin - Минимальная температура - минимум температуры воздуха на высоте 2 м над землей.
Tmax - Максимальная температура - максимум температуры воздуха на высоте 2 м над землей.
R - Количество осадков - Количество выпавших осадков за период времени, мм. При наведении курсора мыши на число - период времени, за который выпало указанное количество осадков.
R24 - Количество осадков - Количество выпавших осадков за 24 часа, мм.
S - Снежный покров - Высота снежного покрова, см. При наведении курсора мыши на число - состояние снежного покрова и степень покрытия местности в баллах.